Location: Saint Louis
(38.6270°N, 90.1980°W)
Time: 22:59:17
(UTC-05:00)

ISS - Pass Details

Date: 25 April 2013
Orbit: 401 x 404 km, 51.6° (Epoch: 28 July)

Event Time Altitude Azimuth Distance (km) Brightness Sun altitude
Rises 20:26:11 0° 313° (NW) 2,355 2.2 -7.9°
Reaches altitude 10° 20:28:21 10° 321° (NW) 1,494 0.7 -8.3°
Maximum altitude 20:31:33 41° 33° (NNE) 623 -2.5 -8.8°
Enters shadow 20:34:20 13° 103° (ESE) 1,335 -1.3 -9.3°
